Weather History for KNQA - February, 2013

Change the Weather History Date:

Sunday, February 17, 2013

  Actual Average (KMEM) Record (KMEM)
Temperature  
Mean Temperature 42 °F 46 °F  
Max Temperature 55 °F 55 °F 76 °F (1976)
Min Temperature 30 °F 37 °F 5 °F (1900)
Degree Days  
Heating Degree Days 22 19  
Month to date heating degree days 357  
Since 1 July heating degree days 2259  
Cooling Degree Days 0 0  
Month to date cooling degree days 0  
Year to date cooling degree days 1  
Moisture  
Dew Point 25 °F    
Average Humidity 56    
Maximum Humidity 80    
Minimum Humidity 33    
Precipitation  
Precipitation 0.00 in 0.15 in 1.64 in (1940)
Month to date precipitation 2.61  
Year to date precipitation 6.59  
Snow  
Snow 0.00 in 0.00 in 2.30 in (1979)
Month to date snowfall 0.9  
Since 1 July snowfall 3.0  
Snow Depth -    
Sea Level Pressure  
Sea Level Pressure 30.18 in    
Wind  
Wind Speed 3 mph (SSE)    
Max Wind Speed 12 mph    
Max Gust Speed -    
Visibility 10 miles    
Events      
T = Trace of Precipitation, MM = Missing Value Source: NWS Daily Summary

Daily Weather History Graph

Daily Weather History Graph

Search for Another Location

Airport or City:

Trip Planner

Search our weather history database for the weather conditions in past years. The results will help you decide how hot, cold, wet, or windy it might be!

Date:

Astronomy

Feb. 17, 2013 Rise Set
Actual Time 6:43 AM CST 5:44 PM CST
Civil Twilight 6:17 AM CST 6:09 PM CST
Nautical Twilight 5:47 AM CST 6:39 PM CST
Astronomical Twilight 5:18 AM CST 7:09 PM CST
Moon 10:53 AM CST (2/17) 12:23 AM CST (2/17)
Length of Visible Light 11h 52m
Length of Day
11h 00m
Waxing Crescent, 49% of the Moon is Illuminated
Feb 17
Waxing Crescent
Feb 17
First Quarter
Feb 25
Full
Mar 4
Last Quarter
Mar 11
New

Hourly Weather History & Observations

Time (CST) Temp. Windchill Dew Point Humidity Pressure Visibility Wind Dir Wind Speed Gust Speed Precip Events Conditions
12:55 AM 30.2 °F - 21.2 °F 69% 30.24 in 10.0 mi Calm Calm - N/A   Overcast
1:55 AM 30.2 °F - 24.8 °F 80% 30.23 in 10.0 mi Calm Calm - N/A   Overcast
2:15 AM 30.2 °F - 23.0 °F 75% 30.23 in 10.0 mi Calm Calm - N/A   Overcast
2:35 AM 30.2 °F - 21.2 °F 69% 30.23 in 10.0 mi Calm Calm - N/A   Overcast
2:55 AM 30.2 °F - 23.0 °F 75% 30.23 in 10.0 mi Calm Calm - N/A   Overcast
3:15 AM 30.2 °F - 24.8 °F 80% 30.23 in 10.0 mi Calm Calm - N/A   Overcast
3:35 AM 30.2 °F - 24.8 °F 80% 30.23 in 10.0 mi Calm Calm - N/A   Overcast
3:55 AM 30.2 °F - 24.8 °F 80% 30.22 in 10.0 mi Calm Calm - N/A   Overcast
4:15 AM 32.0 °F - 23.0 °F 69% 30.22 in 10.0 mi Calm Calm - N/A   Overcast
4:35 AM 32.0 °F - 23.0 °F 69% 30.23 in 10.0 mi Calm Calm - N/A   Overcast
4:55 AM 32.0 °F - 23.0 °F 69% 30.23 in 10.0 mi Calm Calm - N/A   Overcast
5:55 AM 33.8 °F 30.8 °F 21.2 °F 60% 30.24 in 10.0 mi SSE 3.5 mph - N/A   Overcast
6:55 AM 33.8 °F 29.6 °F 23.0 °F 65% 30.23 in 10.0 mi SE 4.6 mph - N/A   Overcast
7:55 AM 33.8 °F 29.6 °F 23.0 °F 65% 30.25 in 10.0 mi SSE 4.6 mph - N/A   Overcast
8:55 AM 35.6 °F 29.2 °F 21.2 °F 56% 30.26 in 10.0 mi South 8.1 mph - N/A   Overcast
9:55 AM 41.0 °F 35.8 °F 21.2 °F 45% 30.26 in 10.0 mi South 8.1 mph - N/A   Mostly Cloudy
10:55 AM 44.6 °F 39.7 °F 21.2 °F 39% 30.25 in 10.0 mi South 9.2 mph - N/A   Scattered Clouds
11:55 AM 48.2 °F - 21.2 °F 34% 30.21 in 10.0 mi Variable 6.9 mph - N/A   Partly Cloudy
12:55 PM 51.8 °F - 23.0 °F 33% 30.18 in 10.0 mi South 9.2 mph - N/A   Clear
1:55 PM 53.6 °F - 24.8 °F 33% 30.14 in 10.0 mi South 9.2 mph - N/A   Clear
2:55 PM 55.4 °F - 26.6 °F 33% 30.12 in 10.0 mi South 8.1 mph - N/A   Clear
3:55 PM 55.4 °F - 26.6 °F 33% 30.10 in 10.0 mi SSE 8.1 mph - N/A   Clear
4:55 PM 53.6 °F - 26.6 °F 35% 30.09 in 10.0 mi SSE 6.9 mph - N/A   Clear
5:55 PM 51.8 °F - 28.4 °F 41% 30.10 in 10.0 mi SSE 6.9 mph - N/A   Partly Cloudy
6:55 PM 48.2 °F - 28.4 °F 46% 30.10 in 10.0 mi SE 3.5 mph - N/A   Clear
7:55 PM 46.4 °F 42.9 °F 28.4 °F 50% 30.10 in 10.0 mi SE 6.9 mph - N/A   Clear
8:55 PM 46.4 °F 42.4 °F 28.4 °F 50% 30.10 in 10.0 mi SE 8.1 mph - N/A   Clear
9:55 PM 46.4 °F 42.9 °F 28.4 °F 50% 30.09 in 10.0 mi SE 6.9 mph - N/A   Clear
10:55 PM 48.2 °F - 30.2 °F 50% 30.08 in 10.0 mi SSE 11.5 mph - N/A   Clear
11:55 PM 46.4 °F 41.9 °F 30.2 °F 53% 30.07 in 10.0 mi SSE 9.2 mph - N/A   Clear